Time,TemperatureF,DewpointF,PressureIn,WindDirection,WindDirectionDegrees,WindSpeedMPH,WindSpeedGustMPH,Humidity,HourlyPrecipIn,Conditions,Clouds,dailyrainin,SoftwareType,DateUTC
2013-09-14 00:00:00,68.3,55.2,29.95,ESE,120,2.0,3.0,63,0.00,,,0.00,LWC2 V0.39 B123,2013-09-14 06:00:00,
2013-09-14 00:05:00,68.1,55.5,29.95,ESE,110,2.0,3.0,64,0.00,,,0.00,LWC2 V0.39 B123,2013-09-14 06:05:00,
2013-09-14 00:10:00,68.0,55.4,29.96,ESE,118,2.0,5.0,64,0.00,,,0.00,LWC2 V0.39 B123,2013-09-14 06:10:00,
2013-09-14 00:15:00,67.9,55.3,29.96,East,87,2.0,4.0,64,0.00,,,0.00,LWC2 V0.39 B123,2013-09-14 06:15:00,
2013-09-14 00:20:00,67.9,55.3,29.95,ESE,105,1.0,5.0,64,0.00,,,0.00,LWC2 V0.39 B123,2013-09-14 06:20:00,
2013-09-14 00:25:00,67.9,55.3,29.96,ESE,111,1.0,6.0,64,0.00,,,0.00,LWC2 V0.39 B123,2013-09-14 06:25:00,
2013-09-14 00:30:00,67.9,55.3,29.95,East,88,3.0,8.0,64,0.00,,,0.00,LWC2 V0.39 B123,2013-09-14 06:30:00,
2013-09-14 00:35:00,67.9,55.3,29.95,SE,135,1.0,4.0,64,0.00,,,0.00,LWC2 V0.39 B123,2013-09-14 06:35:00,
2013-09-14 00:40:00,67.9,55.3,29.95,East,98,1.0,3.0,64,0.00,,,0.00,LWC2 V0.39 B123,2013-09-14 06:40:00,
2013-09-14 00:45:00,67.7,55.1,29.95,East,89,1.0,3.0,64,0.00,,,0.00,LWC2 V0.39 B123,2013-09-14 06:45:00,
2013-09-14 00:50:00,67.7,55.1,29.95,East,101,1.0,6.0,64,0.00,,,0.00,LWC2 V0.39 B123,2013-09-14 06:50:00,
2013-09-14 00:55:00,67.5,55.3,29.96,ESE,105,2.0,3.0,65,0.00,,,0.00,LWC2 V0.39 B123,2013-09-14 06:55:00,
2013-09-14 01:00:00,67.5,55.3,29.96,ESE,122,2.0,3.0,65,0.00,,,0.00,LWC2 V0.39 B123,2013-09-14 07:00:00,
2013-09-14 01:05:00,67.3,55.1,29.96,ESE,112,2.0,2.0,65,0.00,,,0.00,LWC2 V0.39 B123,2013-09-14 07:05:00,
2013-09-14 01:10:00,67.3,55.1,29.96,East,97,2.0,6.0,65,0.00,,,0.00,LWC2 V0.39 B123,2013-09-14 07:10:00,
2013-09-14 01:15:00,67.1,55.4,29.96,East,83,2.0,5.0,66,0.00,,,0.00,LWC2 V0.39 B123,2013-09-14 07:15:00,
2013-09-14 01:20:00,67.1,55.4,29.96,ESE,108,2.0,5.0,66,0.00,,,0.00,LWC2 V0.39 B123,2013-09-14 07:20:00,
2013-09-14 01:25:00,67.0,55.3,29.95,SE,134,3.0,6.0,66,0.00,,,0.00,LWC2 V0.39 B123,2013-09-14 07:25:00,
2013-09-14 01:30:00,66.9,55.2,29.95,ESE,111,3.0,5.0,66,0.00,,,0.00,LWC2 V0.39 B123,2013-09-14 07:30:00,
2013-09-14 01:35:00,66.8,55.5,29.95,ESE,118,3.0,6.0,67,0.00,,,0.00,LWC2 V0.39 B123,2013-09-14 07:35:00,
2013-09-14 01:40:00,66.7,55.4,29.95,ESE,111,1.0,5.0,67,0.00,,,0.00,LWC2 V0.39 B123,2013-09-14 07:40:00,
2013-09-14 01:45:00,66.7,55.4,29.95,ESE,109,2.0,3.0,67,0.00,,,0.00,LWC2 V0.39 B123,2013-09-14 07:45:00,
2013-09-14 01:50:00,66.5,55.2,29.95,ESE,102,1.0,3.0,67,0.00,,,0.00,LWC2 V0.39 B123,2013-09-14 07:50:00,
2013-09-14 01:55:00,66.4,55.1,29.95,ESE,121,1.0,5.0,67,0.00,,,0.00,LWC2 V0.39 B123,2013-09-14 07:55:00,
2013-09-14 02:00:00,66.2,55.3,29.95,ESE,114,1.0,2.0,68,0.00,,,0.00,LWC2 V0.39 B123,2013-09-14 08:00:00,
2013-09-14 02:05:00,66.0,55.5,29.95,ESE,111,1.0,2.0,69,0.00,,,0.00,LWC2 V0.39 B123,2013-09-14 08:05:00,
2013-09-14 02:10:00,65.8,55.3,29.95,SSE,149,3.0,3.0,69,0.00,,,0.00,LWC2 V0.39 B123,2013-09-14 08:10:00,
2013-09-14 02:15:00,65.6,55.1,29.95,ESE,117,3.0,3.0,69,0.00,,,0.00,LWC2 V0.39 B123,2013-09-14 08:15:00,
2013-09-14 02:20:00,65.4,55.4,29.95,SE,129,3.0,5.0,70,0.00,,,0.00,LWC2 V0.39 B123,2013-09-14 08:20:00,
2013-09-14 02:25:00,65.3,55.3,29.95,SE,131,2.0,4.0,70,0.00,,,0.00,LWC2 V0.39 B123,2013-09-14 08:25:00,
2013-09-14 02:30:00,65.2,55.6,29.95,East,92,1.0,2.0,71,0.00,,,0.00,LWC2 V0.39 B123,2013-09-14 08:30:00,
2013-09-14 02:35:00,65.2,55.2,29.95,ESE,105,2.0,4.0,70,0.00,,,0.00,LWC2 V0.39 B123,2013-09-14 08:35:00,
2013-09-14 02:40:00,65.1,55.1,29.95,ESE,111,1.0,3.0,70,0.00,,,0.00,LWC2 V0.39 B123,2013-09-14 08:40:00,
2013-09-14 02:45:00,65.1,55.5,29.94,East,87,1.0,2.0,71,0.00,,,0.00,LWC2 V0.39 B123,2013-09-14 08:45:00,
2013-09-14 02:50:00,64.9,55.3,29.94,SE,124,1.0,3.0,71,0.00,,,0.00,LWC2 V0.39 B123,2013-09-14 08:50:00,
2013-09-14 02:55:00,64.9,55.3,29.94,ESE,121,2.0,3.0,71,0.00,,,0.00,LWC2 V0.39 B123,2013-09-14 08:55:00,
2013-09-14 03:00:00,64.8,55.2,29.94,ESE,106,1.0,2.0,71,0.00,,,0.00,LWC2 V0.39 B123,2013-09-14 09:00:00,
2013-09-14 03:05:00,64.6,55.4,29.94,ESE,111,4.0,5.0,72,0.00,,,0.00,LWC2 V0.39 B123,2013-09-14 09:05:00,
2013-09-14 03:10:00,64.6,55.4,29.94,SE,135,3.0,4.0,72,0.00,,,0.00,LWC2 V0.39 B123,2013-09-14 09:10:00,
2013-09-14 03:15:00,64.7,55.1,29.94,SE,137,2.0,5.0,71,0.00,,,0.00,LWC2 V0.39 B123,2013-09-14 09:15:00,
2013-09-14 03:20:00,64.7,55.5,29.94,ESE,108,1.0,3.0,72,0.00,,,0.00,LWC2 V0.39 B123,2013-09-14 09:20:00,
2013-09-14 03:25:00,64.6,55.4,29.95,ESE,107,1.0,2.0,72,0.00,,,0.00,LWC2 V0.39 B123,2013-09-14 09:25:00,
2013-09-14 03:30:00,64.5,55.6,29.94,ESE,110,1.0,2.0,73,0.00,,,0.00,LWC2 V0.39 B123,2013-09-14 09:30:00,
2013-09-14 03:35:00,64.3,55.5,29.94,ESE,108,1.0,3.0,73,0.00,,,0.00,LWC2 V0.39 B123,2013-09-14 09:35:00,
2013-09-14 03:40:00,64.2,55.4,29.94,ESE,110,1.0,2.0,73,0.00,,,0.00,LWC2 V0.39 B123,2013-09-14 09:40:00,
2013-09-14 03:45:00,64.1,55.6,29.95,ESE,105,1.0,2.0,74,0.00,,,0.00,LWC2 V0.39 B123,2013-09-14 09:45:00,
2013-09-14 03:50:00,64.0,55.5,29.95,ESE,122,2.0,3.0,74,0.00,,,0.00,LWC2 V0.39 B123,2013-09-14 09:50:00,
2013-09-14 03:55:00,63.9,55.4,29.95,ESE,117,2.0,3.0,74,0.00,,,0.00,LWC2 V0.39 B123,2013-09-14 09:55:00,
2013-09-14 04:00:00,63.9,55.4,29.95,ESE,113,1.0,2.0,74,0.00,,,0.00,LWC2 V0.39 B123,2013-09-14 10:00:00,
2013-09-14 04:05:00,63.7,55.3,29.95,ESE,112,3.0,4.0,74,0.00,,,0.00,LWC2 V0.39 B123,2013-09-14 10:05:00,
2013-09-14 04:10:00,63.7,55.3,29.95,ESE,104,1.0,3.0,74,0.00,,,0.00,LWC2 V0.39 B123,2013-09-14 10:10:00,
2013-09-14 04:15:00,63.6,55.5,29.95,ESE,118,2.0,3.0,75,0.00,,,0.00,LWC2 V0.39 B123,2013-09-14 10:15:00,
2013-09-14 04:20:00,63.5,55.8,29.95,SE,131,2.0,4.0,76,0.00,,,0.00,LWC2 V0.39 B123,2013-09-14 10:20:00,
2013-09-14 04:25:00,63.5,55.4,29.95,ESE,118,2.0,4.0,75,0.00,,,0.00,LWC2 V0.39 B123,2013-09-14 10:25:00,
2013-09-14 04:30:00,63.7,55.6,29.95,ESE,119,1.0,4.0,75,0.00,,,0.00,LWC2 V0.39 B123,2013-09-14 10:30:00,
2013-09-14 04:35:00,63.6,55.2,29.95,SE,124,2.0,3.0,74,0.00,,,0.00,LWC2 V0.39 B123,2013-09-14 10:35:00,
2013-09-14 04:40:00,63.6,55.2,29.95,SE,124,2.0,2.0,74,0.00,,,0.00,LWC2 V0.39 B123,2013-09-14 10:40:00,
2013-09-14 05:01:00,62.9,55.2,29.95,ESE,113,3.0,3.0,76,0.00,,,0.00,LWC2 V0.39 B123,2013-09-14 11:01:00,
2013-09-14 05:06:00,62.7,55.4,29.95,ESE,105,2.0,3.0,77,0.00,,,0.00,LWC2 V0.39 B123,2013-09-14 11:06:00,
2013-09-14 05:11:00,62.6,55.3,29.95,ESE,121,2.0,3.0,77,0.00,,,0.00,LWC2 V0.39 B123,2013-09-14 11:11:00,
2013-09-14 05:16:00,62.6,55.3,29.95,ESE,119,3.0,5.0,77,0.00,,,0.00,LWC2 V0.39 B123,2013-09-14 11:16:00,
2013-09-14 05:21:00,62.6,55.3,29.95,SE,128,2.0,5.0,77,0.00,,,0.00,LWC2 V0.39 B123,2013-09-14 11:21:00,
2013-09-14 05:26:00,62.7,55.4,29.95,ESE,108,4.0,4.0,77,0.00,,,0.00,LWC2 V0.39 B123,2013-09-14 11:26:00,
2013-09-14 05:31:00,62.8,55.5,29.95,ESE,110,3.0,4.0,77,0.00,,,0.00,LWC2 V0.39 B123,2013-09-14 11:31:00,
2013-09-14 05:36:00,62.8,55.5,29.96,ESE,118,2.0,5.0,77,0.00,,,0.00,LWC2 V0.39 B123,2013-09-14 11:36:00,
2013-09-14 05:41:00,62.8,55.5,29.96,East,101,2.0,5.0,77,0.00,,,0.00,LWC2 V0.39 B123,2013-09-14 11:41:00,
2013-09-14 05:46:00,62.9,55.2,29.96,SE,138,2.0,3.0,76,0.00,,,0.00,LWC2 V0.39 B123,2013-09-14 11:46:00,
2013-09-14 05:51:00,62.9,55.6,29.96,ESE,115,2.0,2.0,77,0.00,,,0.00,LWC2 V0.39 B123,2013-09-14 11:51:00,
2013-09-14 05:56:00,62.9,55.6,29.96,ESE,114,1.0,2.0,77,0.00,,,0.00,LWC2 V0.39 B123,2013-09-14 11:56:00,
2013-09-14 06:01:00,62.8,55.5,29.97,East,101,1.0,4.0,77,0.00,,,0.00,LWC2 V0.39 B123,2013-09-14 12:01:00,
2013-09-14 06:06:00,62.7,55.4,29.97,ESE,119,3.0,3.0,77,0.00,,,0.00,LWC2 V0.39 B123,2013-09-14 12:06:00,
2013-09-14 06:11:00,62.6,55.3,29.97,ESE,113,2.0,3.0,77,0.00,,,0.00,LWC2 V0.39 B123,2013-09-14 12:11:00,
2013-09-14 06:16:00,62.6,55.3,29.97,SE,132,2.0,4.0,77,0.00,,,0.00,LWC2 V0.39 B123,2013-09-14 12:16:00,
2013-09-14 06:21:00,62.5,55.2,29.98,SSE,150,4.0,4.0,77,0.00,,,0.00,LWC2 V0.39 B123,2013-09-14 12:21:00,
2013-09-14 06:26:00,62.6,55.3,29.98,East,98,2.0,3.0,77,0.00,,,0.00,LWC2 V0.39 B123,2013-09-14 12:26:00,
2013-09-14 06:31:00,62.8,55.5,29.98,ESE,121,3.0,3.0,77,0.00,,,0.00,LWC2 V0.39 B123,2013-09-14 12:31:00,
2013-09-14 06:36:00,63.2,55.5,29.98,SE,125,3.0,4.0,76,0.00,,,0.00,LWC2 V0.39 B123,2013-09-14 12:36:00,
2013-09-14 06:41:00,63.6,55.9,29.98,East,98,2.0,4.0,76,0.00,,,0.00,LWC2 V0.39 B123,2013-09-14 12:41:00,
2013-09-14 06:46:00,64.0,55.9,29.98,SE,132,1.0,4.0,75,0.00,,,0.00,LWC2 V0.39 B123,2013-09-14 12:46:00,
2013-09-14 06:51:00,64.5,56.0,29.99,ESE,114,4.0,6.0,74,0.00,,,0.00,LWC2 V0.39 B123,2013-09-14 12:51:00,
2013-09-14 06:56:00,65.0,56.1,29.99,SSE,153,4.0,4.0,73,0.00,,,0.00,LWC2 V0.39 B123,2013-09-14 12:56:00,
2013-09-14 07:01:00,65.3,56.4,29.99,SSE,152,3.0,5.0,73,0.00,,,0.00,LWC2 V0.39 B123,2013-09-14 13:01:00,
2013-09-14 07:06:00,65.5,56.2,29.99,ESE,114,3.0,3.0,72,0.00,,,0.00,LWC2 V0.39 B123,2013-09-14 13:06:00,
2013-09-14 07:11:00,65.8,56.5,29.99,ESE,121,2.0,4.0,72,0.00,,,0.00,LWC2 V0.39 B123,2013-09-14 13:11:00,
2013-09-14 07:16:00,66.3,57.0,29.99,ESE,107,5.0,5.0,72,0.00,,,0.00,LWC2 V0.39 B123,2013-09-14 13:16:00,
2013-09-14 07:21:00,66.8,56.7,29.99,ESE,120,5.0,6.0,70,0.00,,,0.00,LWC2 V0.39 B123,2013-09-14 13:21:00,
2013-09-14 07:26:00,67.5,57.4,29.99,SE,131,2.0,4.0,70,0.00,,,0.00,LWC2 V0.39 B123,2013-09-14 13:26:00,
2013-09-14 07:31:00,68.1,57.1,30.00,ESE,118,2.0,5.0,68,0.00,,,0.00,LWC2 V0.39 B123,2013-09-14 13:31:00,
2013-09-14 07:36:00,68.8,57.8,30.00,SE,129,3.0,5.0,68,0.00,,,0.00,LWC2 V0.39 B123,2013-09-14 13:36:00,
2013-09-14 07:41:00,69.4,57.5,30.00,SSE,162,3.0,10.0,66,0.00,,,0.00,LWC2 V0.39 B123,2013-09-14 13:41:00,
2013-09-14 07:46:00,69.7,57.4,30.00,SE,134,5.0,7.0,65,0.00,,,0.00,LWC2 V0.39 B123,2013-09-14 13:46:00,
2013-09-14 07:51:00,69.9,58.0,30.00,SE,125,5.0,7.0,66,0.00,,,0.00,LWC2 V0.39 B123,2013-09-14 13:51:00,
2013-09-14 07:56:00,70.3,57.5,30.00,SSE,155,4.0,8.0,64,0.00,,,0.00,LWC2 V0.39 B123,2013-09-14 13:56:00,
2013-09-14 08:01:00,70.8,58.0,30.00,SE,137,4.0,6.0,64,0.00,,,0.00,LWC2 V0.39 B123,2013-09-14 14:01:00,
2013-09-14 08:06:00,71.1,57.9,30.00,SE,129,5.0,7.0,63,0.00,,,0.00,LWC2 V0.39 B123,2013-09-14 14:06:00,
2013-09-14 08:11:00,71.7,58.9,29.99,ESE,115,4.0,6.0,64,0.00,,,0.00,LWC2 V0.39 B123,2013-09-14 14:11:00,
2013-09-14 08:16:00,72.0,58.3,29.99,SSE,150,5.0,6.0,62,0.00,,,0.00,LWC2 V0.39 B123,2013-09-14 14:16:00,
2013-09-14 08:21:00,72.7,58.5,29.99,SSE,167,3.0,7.0,61,0.00,,,0.00,LWC2 V0.39 B123,2013-09-14 14:21:00,
2013-09-14 08:26:00,72.7,58.5,29.99,ESE,121,1.0,8.0,61,0.00,,,0.00,LWC2 V0.39 B123,2013-09-14 14:26:00,
2013-09-14 08:31:00,73.1,58.4,29.99,SSE,165,3.0,6.0,60,0.00,,,0.00,LWC2 V0.39 B123,2013-09-14 14:31:00,
2013-09-14 08:36:00,73.3,58.6,29.99,SW,219,3.0,6.0,60,0.00,,,0.00,LWC2 V0.39 B123,2013-09-14 14:36:00,
2013-09-14 08:41:00,73.9,58.7,30.00,SSW,192,3.0,5.0,59,0.00,,,0.00,LWC2 V0.39 B123,2013-09-14 14:41:00,
2013-09-14 08:46:00,74.1,58.8,30.00,ESE,118,2.0,4.0,59,0.00,,,0.00,LWC2 V0.39 B123,2013-09-14 14:46:00,
2013-09-14 08:51:00,74.5,58.2,30.00,SSE,165,2.0,7.0,57,0.00,,,0.00,LWC2 V0.39 B123,2013-09-14 14:51:00,
2013-09-14 08:56:00,74.4,58.2,30.00,SE,129,4.0,8.0,57,0.00,,,0.00,LWC2 V0.39 B123,2013-09-14 14:56:00,
2013-09-14 09:01:00,74.4,58.6,30.00,SSE,166,2.0,6.0,58,0.00,,,0.00,LWC2 V0.39 B123,2013-09-14 15:01:00,
2013-09-14 09:06:00,74.8,58.5,30.00,SSE,156,3.0,7.0,57,0.00,,,0.00,LWC2 V0.39 B123,2013-09-14 15:06:00,
2013-09-14 09:11:00,75.0,58.7,30.00,SSE,155,3.0,6.0,57,0.00,,,0.00,LWC2 V0.39 B123,2013-09-14 15:11:00,
2013-09-14 09:16:00,75.2,58.9,30.00,SE,143,4.0,7.0,57,0.00,,,0.00,LWC2 V0.39 B123,2013-09-14 15:16:00,
2013-09-14 09:21:00,75.3,59.0,30.01,SE,146,3.0,6.0,57,0.00,,,0.00,LWC2 V0.39 B123,2013-09-14 15:21:00,
2013-09-14 09:26:00,75.8,59.5,30.01,SE,146,5.0,6.0,57,0.00,,,0.00,LWC2 V0.39 B123,2013-09-14 15:26:00,
2013-09-14 09:31:00,76.4,59.5,30.00,South,186,3.0,5.0,56,0.00,,,0.00,LWC2 V0.39 B123,2013-09-14 15:31:00,
2013-09-14 09:36:00,77.1,59.7,30.00,SSE,152,2.0,6.0,55,0.00,,,0.00,LWC2 V0.39 B123,2013-09-14 15:36:00,
2013-09-14 09:41:00,76.9,59.5,30.00,SE,125,6.0,6.0,55,0.00,,,0.00,LWC2 V0.39 B123,2013-09-14 15:41:00,
2013-09-14 09:46:00,76.9,59.5,30.00,ESE,113,5.0,8.0,55,0.00,,,0.00,LWC2 V0.39 B123,2013-09-14 15:46:00,
2013-09-14 09:51:00,77.0,59.6,30.00,SE,131,3.0,7.0,55,0.00,,,0.00,LWC2 V0.39 B123,2013-09-14 15:51:00,
2013-09-14 09:56:00,77.4,59.9,30.00,South,169,2.0,4.0,55,0.00,,,0.00,LWC2 V0.39 B123,2013-09-14 15:56:00,
2013-09-14 10:01:00,77.2,59.2,30.00,ESE,106,2.0,5.0,54,0.00,,,0.00,LWC2 V0.39 B123,2013-09-14 16:01:00,
2013-09-14 10:06:00,77.9,60.4,30.00,SSE,159,4.0,4.0,55,0.00,,,0.00,LWC2 V0.39 B123,2013-09-14 16:06:00,
2013-09-14 10:11:00,79.2,60.0,30.00,SSE,167,2.0,7.0,52,0.00,,,0.00,LWC2 V0.39 B123,2013-09-14 16:11:00,
2013-09-14 10:16:00,79.9,59.6,30.00,SSW,200,4.0,9.0,50,0.00,,,0.00,LWC2 V0.39 B123,2013-09-14 16:16:00,
2013-09-14 10:21:00,79.9,60.1,29.99,SSE,155,4.0,8.0,51,0.00,,,0.00,LWC2 V0.39 B123,2013-09-14 16:21:00,
2013-09-14 10:26:00,80.0,59.7,29.99,SSE,160,3.0,3.0,50,0.00,,,0.00,LWC2 V0.39 B123,2013-09-14 16:26:00,
2013-09-14 10:31:00,80.1,59.2,29.99,ESE,119,3.0,7.0,49,0.00,,,0.00,LWC2 V0.39 B123,2013-09-14 16:31:00,
2013-09-14 10:36:00,79.9,60.1,29.99,SE,143,2.0,5.0,51,0.00,,,0.00,LWC2 V0.39 B123,2013-09-14 16:36:00,
2013-09-14 10:41:00,80.5,59.6,29.99,NNW,336,2.0,7.0,49,0.00,,,0.00,LWC2 V0.39 B123,2013-09-14 16:41:00,
2013-09-14 10:46:00,81.5,59.9,29.99,ESE,108,3.0,6.0,48,0.00,,,0.00,LWC2 V0.39 B123,2013-09-14 16:46:00,
2013-09-14 10:51:00,82.1,60.4,29.99,South,172,4.0,6.0,48,0.00,,,0.00,LWC2 V0.39 B123,2013-09-14 16:51:00,
2013-09-14 10:56:00,81.7,60.1,29.99,ESE,121,5.0,8.0,48,0.00,,,0.00,LWC2 V0.39 B123,2013-09-14 16:56:00,
2013-09-14 11:01:00,80.9,59.9,29.99,SSE,156,5.0,6.0,49,0.00,,,0.00,LWC2 V0.39 B123,2013-09-14 17:01:00,
2013-09-14 11:06:00,80.8,60.4,29.99,SW,229,4.0,6.0,50,0.00,,,0.00,LWC2 V0.39 B123,2013-09-14 17:06:00,
2013-09-14 11:11:00,81.9,60.8,29.99,SE,128,6.0,6.0,49,0.00,,,0.00,LWC2 V0.39 B123,2013-09-14 17:11:00,
2013-09-14 11:16:00,81.8,60.2,29.98,ESE,111,3.0,5.0,48,0.00,,,0.00,LWC2 V0.39 B123,2013-09-14 17:16:00,
2013-09-14 11:21:00,81.8,60.2,29.98,ESE,119,3.0,8.0,48,0.00,,,0.00,LWC2 V0.39 B123,2013-09-14 17:21:00,
2013-09-14 11:26:00,81.5,60.5,29.98,ESE,108,5.0,6.0,49,0.00,,,0.00,LWC2 V0.39 B123,2013-09-14 17:26:00,
2013-09-14 11:31:00,81.9,60.3,29.98,East,90,1.0,5.0,48,0.00,,,0.00,LWC2 V0.39 B123,2013-09-14 17:31:00,
2013-09-14 11:36:00,82.6,60.9,29.97,WSW,247,3.0,5.0,48,0.00,,,0.00,LWC2 V0.39 B123,2013-09-14 17:36:00,
2013-09-14 11:41:00,82.8,60.5,29.97,East,90,1.0,5.0,47,0.00,,,0.00,LWC2 V0.39 B123,2013-09-14 17:41:00,
2013-09-14 11:46:00,83.3,61.5,29.97,SE,139,5.0,7.0,48,0.00,,,0.00,LWC2 V0.39 B123,2013-09-14 17:46:00,
2013-09-14 11:51:00,83.4,61.6,29.97,South,180,3.0,5.0,48,0.00,,,0.00,LWC2 V0.39 B123,2013-09-14 17:51:00,
2013-09-14 11:56:00,83.6,61.8,29.97,WSW,239,4.0,6.0,48,0.00,,,0.00,LWC2 V0.39 B123,2013-09-14 17:56:00,
2013-09-14 12:01:00,83.8,61.4,29.97,SSW,201,4.0,7.0,47,0.00,,,0.00,LWC2 V0.39 B123,2013-09-14 18:01:00,
2013-09-14 12:06:00,84.1,61.1,29.97,SSE,147,2.0,7.0,46,0.00,,,0.00,LWC2 V0.39 B123,2013-09-14 18:06:00,
2013-09-14 12:11:00,84.8,61.7,29.97,South,175,2.0,7.0,46,0.00,,,0.00,LWC2 V0.39 B123,2013-09-14 18:11:00,
2013-09-14 12:16:00,85.1,62.0,29.96,ESE,114,5.0,5.0,46,0.00,,,0.00,LWC2 V0.39 B123,2013-09-14 18:16:00,
2013-09-14 12:21:00,84.5,61.4,29.96,SW,235,7.0,7.0,46,0.00,,,0.00,LWC2 V0.39 B123,2013-09-14 18:21:00,
2013-09-14 12:26:00,84.7,61.6,29.96,SSW,192,4.0,7.0,46,0.00,,,0.00,LWC2 V0.39 B123,2013-09-14 18:26:00,
2013-09-14 12:31:00,85.1,62.6,29.95,South,188,3.0,7.0,47,0.00,,,0.00,LWC2 V0.39 B123,2013-09-14 18:31:00,
2013-09-14 12:36:00,85.1,62.0,29.95,SE,133,1.0,4.0,46,0.00,,,0.00,LWC2 V0.39 B123,2013-09-14 18:36:00,
2013-09-14 12:41:00,85.4,62.2,29.95,SSE,167,4.0,8.0,46,0.00,,,0.00,LWC2 V0.39 B123,2013-09-14 18:41:00,
2013-09-14 12:46:00,85.3,62.1,29.95,ESE,117,6.0,6.0,46,0.00,,,0.00,LWC2 V0.39 B123,2013-09-14 18:46:00,
2013-09-14 12:51:00,85.4,62.2,29.95,ESE,105,4.0,5.0,46,0.00,,,0.00,LWC2 V0.39 B123,2013-09-14 18:51:00,
2013-09-14 12:56:00,86.2,62.3,29.94,SE,141,2.0,9.0,45,0.00,,,0.00,LWC2 V0.39 B123,2013-09-14 18:56:00,
2013-09-14 13:01:00,86.6,62.7,29.94,SE,134,4.0,8.0,45,0.00,,,0.00,LWC2 V0.39 B123,2013-09-14 19:01:00,
2013-09-14 13:06:00,86.7,62.1,29.94,ESE,118,5.0,6.0,44,0.00,,,0.00,LWC2 V0.39 B123,2013-09-14 19:06:00,
2013-09-14 13:11:00,87.1,63.1,29.94,SSE,158,4.0,5.0,45,0.00,,,0.00,LWC2 V0.39 B123,2013-09-14 19:11:00,
2013-09-14 13:16:00,87.3,62.0,29.93,SSE,155,4.0,8.0,43,0.00,,,0.00,LWC2 V0.39 B123,2013-09-14 19:16:00,
2013-09-14 13:21:00,86.8,62.2,29.93,SE,135,6.0,7.0,44,0.00,,,0.00,LWC2 V0.39 B123,2013-09-14 19:21:00,
2013-09-14 13:26:00,86.4,62.5,29.93,ESE,119,4.0,8.0,45,0.00,,,0.00,LWC2 V0.39 B123,2013-09-14 19:26:00,
2013-09-14 13:31:00,86.2,62.3,29.93,ENE,78,1.0,5.0,45,0.00,,,0.00,LWC2 V0.39 B123,2013-09-14 19:31:00,
2013-09-14 13:36:00,85.6,62.4,29.93,East,97,2.0,6.0,46,0.00,,,0.00,LWC2 V0.39 B123,2013-09-14 19:36:00,
2013-09-14 13:41:00,85.2,62.7,29.93,ESE,108,4.0,6.0,47,0.00,,,0.00,LWC2 V0.39 B123,2013-09-14 19:41:00,
2013-09-14 13:46:00,85.3,62.8,29.93,ESE,122,6.0,8.0,47,0.00,,,0.00,LWC2 V0.39 B123,2013-09-14 19:46:00,
2013-09-14 13:51:00,85.4,62.8,29.92,SSE,160,3.0,9.0,47,0.00,,,0.00,LWC2 V0.39 B123,2013-09-14 19:51:00,
2013-09-14 13:56:00,85.2,62.0,29.92,ESE,113,2.0,4.0,46,0.00,,,0.00,LWC2 V0.39 B123,2013-09-14 19:56:00,
2013-09-14 14:01:00,85.7,63.1,29.93,WSW,237,3.0,5.0,47,0.00,,,0.00,LWC2 V0.39 B123,2013-09-14 20:01:00,
2013-09-14 14:06:00,85.9,62.7,29.92,SE,131,2.0,6.0,46,0.00,,,0.00,LWC2 V0.39 B123,2013-09-14 20:06:00,
2013-09-14 14:11:00,86.3,63.0,29.92,SSE,157,3.0,8.0,46,0.00,,,0.00,LWC2 V0.39 B123,2013-09-14 20:11:00,
2013-09-14 14:16:00,86.6,62.7,29.92,SSW,200,4.0,6.0,45,0.00,,,0.00,LWC2 V0.39 B123,2013-09-14 20:16:00,
2013-09-14 14:21:00,86.7,62.8,29.92,SE,136,2.0,5.0,45,0.00,,,0.00,LWC2 V0.39 B123,2013-09-14 20:21:00,
2013-09-14 14:26:00,86.6,62.1,29.92,SE,129,3.0,7.0,44,0.00,,,0.00,LWC2 V0.39 B123,2013-09-14 20:26:00,
2013-09-14 14:31:00,86.7,63.4,29.92,SE,124,5.0,6.0,46,0.00,,,0.00,LWC2 V0.39 B123,2013-09-14 20:31:00,
2013-09-14 14:36:00,86.3,63.0,29.91,SE,134,4.0,4.0,46,0.00,,,0.00,LWC2 V0.39 B123,2013-09-14 20:36:00,
2013-09-14 14:41:00,85.9,62.1,29.91,SE,134,3.0,7.0,45,0.00,,,0.00,LWC2 V0.39 B123,2013-09-14 20:41:00,
2013-09-14 14:46:00,85.7,62.5,29.91,SSE,148,3.0,4.0,46,0.00,,,0.00,LWC2 V0.39 B123,2013-09-14 20:46:00,
2013-09-14 14:51:00,86.0,63.4,29.91,ESE,110,4.0,5.0,47,0.00,,,0.00,LWC2 V0.39 B123,2013-09-14 20:51:00,
2013-09-14 14:56:00,86.3,63.7,29.90,South,186,3.0,3.0,47,0.00,,,0.00,LWC2 V0.39 B123,2013-09-14 20:56:00,
2013-09-14 15:01:00,87.4,63.4,29.90,WSW,240,4.0,6.0,45,0.00,,,0.00,LWC2 V0.39 B123,2013-09-14 21:01:00,
2013-09-14 15:06:00,87.5,63.5,29.90,SSE,165,2.0,4.0,45,0.00,,,0.00,LWC2 V0.39 B123,2013-09-14 21:06:00,
2013-09-14 15:11:00,88.1,63.4,29.90,ESE,120,4.0,7.0,44,0.00,,,0.00,LWC2 V0.39 B123,2013-09-14 21:11:00,
2013-09-14 15:16:00,87.5,63.5,29.90,SSE,163,4.0,4.0,45,0.00,,,0.00,LWC2 V0.39 B123,2013-09-14 21:16:00,
2013-09-14 15:21:00,87.5,63.5,29.89,ESE,105,2.0,3.0,45,0.00,,,0.00,LWC2 V0.39 B123,2013-09-14 21:21:00,
2013-09-14 15:26:00,87.1,63.8,29.89,ESE,111,5.0,5.0,46,0.00,,,0.00,LWC2 V0.39 B123,2013-09-14 21:26:00,
2013-09-14 15:31:00,87.0,63.7,29.89,SE,126,5.0,7.0,46,0.00,,,0.00,LWC2 V0.39 B123,2013-09-14 21:31:00,
2013-09-14 15:36:00,87.0,63.7,29.89,SE,140,3.0,3.0,46,0.00,,,0.00,LWC2 V0.39 B123,2013-09-14 21:36:00,
2013-09-14 15:41:00,87.0,63.7,29.89,SE,137,5.0,5.0,46,0.00,,,0.00,LWC2 V0.39 B123,2013-09-14 21:41:00,
2013-09-14 15:46:00,86.8,63.5,29.89,SSE,153,4.0,7.0,46,0.00,,,0.00,LWC2 V0.39 B123,2013-09-14 21:46:00,
2013-09-14 15:51:00,86.8,63.5,29.89,SE,133,2.0,6.0,46,0.00,,,0.00,LWC2 V0.39 B123,2013-09-14 21:51:00,
2013-09-14 15:56:00,86.6,63.3,29.89,SE,145,4.0,6.0,46,0.00,,,0.00,LWC2 V0.39 B123,2013-09-14 21:56:00,
2013-09-14 16:01:00,86.8,63.5,29.89,SSE,167,4.0,6.0,46,0.00,,,0.00,LWC2 V0.39 B123,2013-09-14 22:01:00,
2013-09-14 16:06:00,86.3,63.0,29.89,SE,133,5.0,7.0,46,0.00,,,0.00,LWC2 V0.39 B123,2013-09-14 22:06:00,
2013-09-14 16:11:00,86.3,63.7,29.89,SSE,168,3.0,5.0,47,0.00,,,0.00,LWC2 V0.39 B123,2013-09-14 22:11:00,
2013-09-14 16:16:00,86.2,63.6,29.89,SSW,200,3.0,8.0,47,0.00,,,0.00,LWC2 V0.39 B123,2013-09-14 22:16:00,
2013-09-14 16:21:00,85.8,63.2,29.89,South,188,4.0,7.0,47,0.00,,,0.00,LWC2 V0.39 B123,2013-09-14 22:21:00,
2013-09-14 16:26:00,85.8,63.8,29.89,SSE,150,2.0,5.0,48,0.00,,,0.00,LWC2 V0.39 B123,2013-09-14 22:26:00,
2013-09-14 16:31:00,85.9,63.3,29.88,SE,132,3.0,6.0,47,0.00,,,0.00,LWC2 V0.39 B123,2013-09-14 22:31:00,
2013-09-14 16:36:00,85.8,63.8,29.89,ESE,122,5.0,6.0,48,0.00,,,0.00,LWC2 V0.39 B123,2013-09-14 22:36:00,
2013-09-14 16:41:00,85.9,63.9,29.89,SE,127,6.0,6.0,48,0.00,,,0.00,LWC2 V0.39 B123,2013-09-14 22:41:00,
2013-09-14 16:46:00,85.7,63.7,29.89,SE,145,5.0,6.0,48,0.00,,,0.00,LWC2 V0.39 B123,2013-09-14 22:46:00,
2013-09-14 16:51:00,85.5,64.1,29.88,ESE,118,3.0,4.0,49,0.00,,,0.00,LWC2 V0.39 B123,2013-09-14 22:51:00,
2013-09-14 16:56:00,85.7,64.3,29.89,SE,134,1.0,4.0,49,0.00,,,0.00,LWC2 V0.39 B123,2013-09-14 22:56:00,
2013-09-14 17:01:00,85.7,64.3,29.89,ESE,108,2.0,3.0,49,0.00,,,0.00,LWC2 V0.39 B123,2013-09-14 23:01:00,
2013-09-14 17:02:00,85.6,64.2,29.89,SSE,149,3.0,6.0,49,0.00,,,0.00,LWC2 V0.39 B123,2013-09-14 23:02:00,
2013-09-14 17:07:00,85.0,64.2,29.88,ESE,105,1.0,4.0,50,0.00,,,0.00,LWC2 V0.39 B123,2013-09-14 23:07:00,
2013-09-14 17:12:00,84.8,64.1,29.89,SE,125,4.0,5.0,50,0.00,,,0.00,LWC2 V0.39 B123,2013-09-14 23:12:00,
2013-09-14 17:17:00,84.4,64.3,29.89,South,180,2.0,2.0,51,0.00,,,0.00,LWC2 V0.39 B123,2013-09-14 23:17:00,
2013-09-14 17:22:00,84.0,63.9,29.89,SSW,204,2.0,7.0,51,0.00,,,0.00,LWC2 V0.39 B123,2013-09-14 23:22:00,
2013-09-14 17:27:00,83.7,63.6,29.89,SE,145,4.0,7.0,51,0.00,,,0.00,LWC2 V0.39 B123,2013-09-14 23:27:00,
2013-09-14 17:32:00,83.4,63.3,29.89,SE,139,2.0,8.0,51,0.00,,,0.00,LWC2 V0.39 B123,2013-09-14 23:32:00,
2013-09-14 17:37:00,83.2,63.7,29.89,SSE,162,1.0,3.0,52,0.00,,,0.00,LWC2 V0.39 B123,2013-09-14 23:37:00,
2013-09-14 17:42:00,83.1,63.6,29.89,East,101,3.0,7.0,52,0.00,,,0.00,LWC2 V0.39 B123,2013-09-14 23:42:00,
2013-09-14 17:47:00,82.8,63.3,29.89,SE,129,4.0,7.0,52,0.00,,,0.00,LWC2 V0.39 B123,2013-09-14 23:47:00,
2013-09-14 17:52:00,82.6,63.2,29.89,East,97,4.0,5.0,52,0.00,,,0.00,LWC2 V0.39 B123,2013-09-14 23:52:00,
2013-09-14 17:57:00,82.3,63.4,29.89,ESE,119,4.0,7.0,53,0.00,,,0.00,LWC2 V0.39 B123,2013-09-14 23:57:00,
2013-09-14 18:02:00,82.1,63.2,29.89,SSE,152,2.0,4.0,53,0.00,,,0.00,LWC2 V0.39 B123,2013-09-15 00:02:00,
2013-09-14 18:07:00,81.9,63.1,29.89,SE,125,4.0,5.0,53,0.00,,,0.00,LWC2 V0.39 B123,2013-09-15 00:07:00,
2013-09-14 18:12:00,81.7,63.4,29.89,SSE,163,2.0,4.0,54,0.00,,,0.00,LWC2 V0.39 B123,2013-09-15 00:12:00,
2013-09-14 18:17:00,81.4,63.1,29.89,SE,141,1.0,5.0,54,0.00,,,0.00,LWC2 V0.39 B123,2013-09-15 00:17:00,
2013-09-14 18:22:00,81.1,63.4,29.88,SE,127,3.0,5.0,55,0.00,,,0.00,LWC2 V0.39 B123,2013-09-15 00:22:00,
2013-09-14 18:27:00,80.9,63.2,29.89,SSW,211,2.0,3.0,55,0.00,,,0.00,LWC2 V0.39 B123,2013-09-15 00:27:00,
2013-09-14 18:32:00,80.6,62.9,29.89,ESE,114,1.0,2.0,55,0.00,,,0.00,LWC2 V0.39 B123,2013-09-15 00:32:00,
2013-09-14 18:37:00,80.3,63.1,29.89,SE,145,1.0,3.0,56,0.00,,,0.00,LWC2 V0.39 B123,2013-09-15 00:37:00,
2013-09-14 18:42:00,80.0,62.9,29.89,ESE,123,1.0,1.0,56,0.00,,,0.00,LWC2 V0.39 B123,2013-09-15 00:42:00,
2013-09-14 18:47:00,79.7,63.1,29.89,ESE,110,0.0,2.0,57,0.00,,,0.00,LWC2 V0.39 B123,2013-09-15 00:47:00,
2013-09-14 18:52:00,79.5,62.9,29.88,SE,130,1.0,2.0,57,0.00,,,0.00,LWC2 V0.39 B123,2013-09-15 00:52:00,
2013-09-14 18:57:00,79.2,63.1,29.88,SE,129,2.0,4.0,58,0.00,,,0.00,LWC2 V0.39 B123,2013-09-15 00:57:00,
2013-09-14 19:02:00,79.0,62.9,29.89,SE,136,1.0,3.0,58,0.00,,,0.00,LWC2 V0.39 B123,2013-09-15 01:02:00,
2013-09-14 19:07:00,78.8,63.2,29.89,ESE,115,1.0,1.0,59,0.00,,,0.00,LWC2 V0.39 B123,2013-09-15 01:07:00,
2013-09-14 19:12:00,78.5,63.0,29.89,SE,129,1.0,2.0,59,0.00,,,0.00,LWC2 V0.39 B123,2013-09-15 01:12:00,
2013-09-14 19:17:00,78.3,62.8,29.89,SE,131,1.0,3.0,59,0.00,,,0.00,LWC2 V0.39 B123,2013-09-15 01:17:00,
2013-09-14 19:22:00,78.1,63.1,29.89,ESE,122,0.0,2.0,60,0.00,,,0.00,LWC2 V0.39 B123,2013-09-15 01:22:00,
2013-09-14 19:27:00,77.9,62.9,29.89,SE,127,0.0,1.0,60,0.00,,,0.00,LWC2 V0.39 B123,2013-09-15 01:27:00,
2013-09-14 19:32:00,77.7,63.2,29.89,SE,129,1.0,1.0,61,0.00,,,0.00,LWC2 V0.39 B123,2013-09-15 01:32:00,
2013-09-14 19:37:00,77.5,63.0,29.89,ESE,108,1.0,2.0,61,0.00,,,0.00,LWC2 V0.39 B123,2013-09-15 01:37:00,
2013-09-14 19:42:00,77.4,62.9,29.89,ESE,115,1.0,1.0,61,0.00,,,0.00,LWC2 V0.39 B123,2013-09-15 01:42:00,
2013-09-14 19:47:00,77.2,63.2,29.89,ESE,113,1.0,3.0,62,0.00,,,0.00,LWC2 V0.39 B123,2013-09-15 01:47:00,
2013-09-14 19:52:00,77.0,63.0,29.89,SE,129,2.0,3.0,62,0.00,,,0.00,LWC2 V0.39 B123,2013-09-15 01:52:00,
2013-09-14 19:57:00,76.9,63.3,29.89,ESE,109,0.0,1.0,63,0.00,,,0.00,LWC2 V0.39 B123,2013-09-15 01:57:00,
2013-09-14 20:02:00,76.6,63.0,29.89,East,101,1.0,2.0,63,0.00,,,0.00,LWC2 V0.39 B123,2013-09-15 02:02:00,
2013-09-14 20:07:00,76.5,62.9,29.89,ESE,118,1.0,1.0,63,0.00,,,0.00,LWC2 V0.39 B123,2013-09-15 02:07:00,
2013-09-14 20:12:00,76.4,63.3,29.90,ESE,122,1.0,4.0,64,0.00,,,0.00,LWC2 V0.39 B123,2013-09-15 02:12:00,
2013-09-14 20:17:00,76.4,63.3,29.90,SE,131,1.0,2.0,64,0.00,,,0.00,LWC2 V0.39 B123,2013-09-15 02:17:00,
2013-09-14 20:22:00,76.3,63.2,29.89,SE,124,1.0,2.0,64,0.00,,,0.00,LWC2 V0.39 B123,2013-09-15 02:22:00,
2013-09-14 20:27:00,76.1,63.0,29.89,ESE,111,2.0,3.0,64,0.00,,,0.00,LWC2 V0.39 B123,2013-09-15 02:27:00,
2013-09-14 20:32:00,76.0,62.9,29.89,SE,141,2.0,3.0,64,0.00,,,0.00,LWC2 V0.39 B123,2013-09-15 02:32:00,
2013-09-14 20:37:00,75.9,63.3,29.89,ESE,113,2.0,4.0,65,0.00,,,0.00,LWC2 V0.39 B123,2013-09-15 02:37:00,
2013-09-14 20:42:00,75.9,63.3,29.89,ESE,113,1.0,4.0,65,0.00,,,0.00,LWC2 V0.39 B123,2013-09-15 02:42:00,
2013-09-14 20:47:00,75.9,62.8,29.90,SSE,149,4.0,5.0,64,0.00,,,0.00,LWC2 V0.39 B123,2013-09-15 02:47:00,
2013-09-14 20:52:00,75.9,62.8,29.90,SE,134,3.0,3.0,64,0.00,,,0.00,LWC2 V0.39 B123,2013-09-15 02:52:00,
2013-09-14 20:57:00,75.9,62.8,29.89,SE,125,2.0,4.0,64,0.00,,,0.00,LWC2 V0.39 B123,2013-09-15 02:57:00,
2013-09-14 21:02:00,75.9,62.4,29.90,ESE,113,6.0,6.0,63,0.00,,,0.00,LWC2 V0.39 B123,2013-09-15 03:02:00,
2013-09-14 21:07:00,75.8,62.3,29.90,SE,125,1.0,3.0,63,0.00,,,0.00,LWC2 V0.39 B123,2013-09-15 03:07:00,
2013-09-14 21:12:00,75.8,61.8,29.90,SE,125,5.0,5.0,62,0.00,,,0.00,LWC2 V0.39 B123,2013-09-15 03:12:00,
2013-09-14 21:17:00,75.8,61.8,29.90,ESE,122,2.0,5.0,62,0.00,,,0.00,LWC2 V0.39 B123,2013-09-15 03:17:00,
2013-09-14 21:22:00,75.7,61.7,29.90,ESE,113,2.0,4.0,62,0.00,,,0.00,LWC2 V0.39 B123,2013-09-15 03:22:00,
2013-09-14 21:27:00,75.6,61.6,29.90,SE,134,3.0,4.0,62,0.00,,,0.00,LWC2 V0.39 B123,2013-09-15 03:27:00,
2013-09-14 21:32:00,75.4,61.5,29.90,SE,124,3.0,3.0,62,0.00,,,0.00,LWC2 V0.39 B123,2013-09-15 03:32:00,
2013-09-14 21:37:00,75.2,61.7,29.91,SE,129,2.0,3.0,63,0.00,,,0.00,LWC2 V0.39 B123,2013-09-15 03:37:00,
2013-09-14 21:42:00,75.0,61.5,29.91,South,181,2.0,4.0,63,0.00,,,0.00,LWC2 V0.39 B123,2013-09-15 03:42:00,
2013-09-14 21:47:00,75.0,61.5,29.91,SSE,158,3.0,3.0,63,0.00,,,0.00,LWC2 V0.39 B123,2013-09-15 03:47:00,
2013-09-14 21:52:00,74.9,61.0,29.91,SSE,165,3.0,4.0,62,0.00,,,0.00,LWC2 V0.39 B123,2013-09-15 03:52:00,
2013-09-14 21:57:00,74.7,60.8,29.91,SE,132,2.0,4.0,62,0.00,,,0.00,LWC2 V0.39 B123,2013-09-15 03:57:00,
2013-09-14 22:01:00,74.7,60.8,29.91,SE,134,2.0,5.0,62,0.00,,,0.00,LWC2 V0.39 B123,2013-09-15 04:01:00,
2013-09-14 22:02:00,74.6,60.7,29.91,SSE,150,3.0,4.0,62,0.00,,,0.00,LWC2 V0.39 B123,2013-09-15 04:02:00,
2013-09-14 22:06:00,74.6,60.7,29.91,SSE,160,5.0,6.0,62,0.00,,,0.00,LWC2 V0.39 B123,2013-09-15 04:06:00,
2013-09-14 22:10:00,74.6,60.7,29.91,ESE,115,2.0,5.0,62,0.00,,,0.00,LWC2 V0.39 B123,2013-09-15 04:10:00,
2013-09-14 22:15:00,74.4,61.0,29.92,SE,138,2.0,6.0,63,0.00,,,0.00,LWC2 V0.39 B123,2013-09-15 04:15:00,
2013-09-14 22:16:00,74.4,61.0,29.92,SSE,152,2.0,5.0,63,0.00,,,0.00,LWC2 V0.39 B123,2013-09-15 04:16:00,
2013-09-14 22:18:00,74.3,60.9,29.92,ESE,115,4.0,5.0,63,0.00,,,0.00,LWC2 V0.39 B123,2013-09-15 04:18:00,
2013-09-14 22:23:00,74.2,60.3,29.92,SE,129,3.0,6.0,62,0.00,,,0.00,LWC2 V0.39 B123,2013-09-15 04:23:00,
2013-09-14 22:28:00,74.1,60.2,29.92,SSE,153,4.0,6.0,62,0.00,,,0.00,LWC2 V0.39 B123,2013-09-15 04:28:00,
2013-09-14 22:33:00,74.0,60.1,29.92,South,170,4.0,4.0,62,0.00,,,0.00,LWC2 V0.39 B123,2013-09-15 04:33:00,
2013-09-14 22:38:00,73.9,60.0,29.92,ESE,111,6.0,7.0,62,0.00,,,0.00,LWC2 V0.39 B123,2013-09-15 04:38:00,
2013-09-14 22:43:00,73.9,59.6,29.92,SE,135,5.0,6.0,61,0.00,,,0.00,LWC2 V0.39 B123,2013-09-15 04:43:00,
2013-09-14 22:48:00,73.9,59.6,29.92,SSE,165,2.0,5.0,61,0.00,,,0.00,LWC2 V0.39 B123,2013-09-15 04:48:00,
2013-09-14 22:53:00,73.9,59.6,29.92,ESE,102,2.0,7.0,61,0.00,,,0.00,LWC2 V0.39 B123,2013-09-15 04:53:00,
2013-09-14 22:58:00,73.8,59.0,29.92,ESE,121,4.0,7.0,60,0.00,,,0.00,LWC2 V0.39 B123,2013-09-15 04:58:00,
2013-09-14 23:03:00,73.8,59.0,29.92,SSE,159,4.0,7.0,60,0.00,,,0.00,LWC2 V0.39 B123,2013-09-15 05:03:00,
2013-09-14 23:08:00,73.7,58.9,29.92,SSE,149,2.0,4.0,60,0.00,,,0.00,LWC2 V0.39 B123,2013-09-15 05:08:00,
2013-09-14 23:13:00,73.6,58.8,29.92,SSE,162,3.0,8.0,60,0.00,,,0.00,LWC2 V0.39 B123,2013-09-15 05:13:00,
2013-09-14 23:18:00,73.6,58.8,29.92,SSE,153,2.0,5.0,60,0.00,,,0.00,LWC2 V0.39 B123,2013-09-15 05:18:00,
2013-09-14 23:23:00,73.4,58.7,29.92,South,179,4.0,4.0,60,0.00,,,0.00,LWC2 V0.39 B123,2013-09-15 05:23:00,
2013-09-14 23:28:00,73.4,58.2,29.92,ESE,119,6.0,6.0,59,0.00,,,0.00,LWC2 V0.39 B123,2013-09-15 05:28:00,
2013-09-14 23:33:00,73.4,58.2,29.92,SE,132,4.0,6.0,59,0.00,,,0.00,LWC2 V0.39 B123,2013-09-15 05:33:00,
2013-09-14 23:38:00,73.3,58.1,29.91,SE,129,3.0,9.0,59,0.00,,,0.00,LWC2 V0.39 B123,2013-09-15 05:38:00,
2013-09-14 23:43:00,73.2,58.0,29.91,SE,142,4.0,5.0,59,0.00,,,0.00,LWC2 V0.39 B123,2013-09-15 05:43:00,
2013-09-14 23:48:00,73.2,58.0,29.91,SE,125,3.0,6.0,59,0.00,,,0.00,LWC2 V0.39 B123,2013-09-15 05:48:00,
2013-09-14 23:53:00,73.1,57.4,29.92,SE,146,2.0,7.0,58,0.00,,,0.00,LWC2 V0.39 B123,2013-09-15 05:53:00,
2013-09-14 23:58:00,72.9,57.2,29.91,SE,127,2.0,6.0,58,0.00,,,0.00,LWC2 V0.39 B123,2013-09-15 05:58:00,